Regional Weather Roundup
Issued by NWS

Home | Current Version | Previous Version | Graphics & Text | Print | Product List | Glossary On
Versions: 1 2 3 4 5 6 7 8 9 10 11 12 13 14 15 16 17 18 19 20 21 22 23 24 25 26 27 28 29 30 31 32 33 34 35 36 37 38 39 40 41 42 43 44 45 46 47 48 49 50
000
ASUS45 KSLC 190510
RWRUT

UTAH REGIONAL WEATHER ROUNDUP
NATIONAL WEATHER SERVICE SALT LAKE CITY UT
1100 PM MDT THU SEP 18 2014

UTZ001>011-023>025-190600-

NORTHERN UTAH

CITY           SKY/WX    TMP DP  RH WIND       PRES   REMARKS
HILL AFB       PTCLDY    68  51  54 N6        29.90R
LOGAN          PTCLDY    63  56  78 SW8       29.94F
OGDEN          PTCLDY    69  51  52 NW9       29.87R
PROVO AIRPORT  CLOUDY    70  57  64 CALM      29.88R
SALT LAKE CITY MOCLDY    70  53  54 NW14      29.88R
VERNAL         CLEAR     63  45  51 W6        29.94R
WENDOVER       MOCLDY    70  52  52 NW15      29.92R
HEBER CITY     PTCLDY    63  48  59 S5        29.95R
WEST JORDAN    MOCLDY    70  50  49 NW28G36   29.92R

$$

UTZ012>022-026-027-190600-

SOUTHERN UTAH

CITY           SKY/WX    TMP DP  RH WIND       PRES   REMARKS
BRYCE CANYON   CLEAR     49  44  83 W3        30.15S
CEDAR CITY     CLEAR     69  51  52 SE3       29.99R
MILFORD        CLEAR     72  52  49 S13       29.93R
MOAB/CYNLANDS  CLEAR     73  39  29 W3        29.88R
PRICE          CLEAR     66  39  37 NE8       30.00R
ST GEORGE      MOCLDY    81  52  36 W8        29.82R
KANAB            N/A     70  48  46 NE3       29.99R

$$

REGIONAL REPORTS     COLORADO/ARIZONA

CITY           SKY/WX    TMP DP  RH WIND       PRES   REMARKS
CRAIG, CO      CLEAR     52  42  69 CALM      30.03R
GRAND JUNCTION CLEAR     68  45  43 E5        29.92R
RIFLE          CLEAR     63  41  44 CALM      29.99R
MONTROSE       CLEAR     64  45  49 S7        30.03R
CORTEZ         CLEAR     56  45  66 E6        30.04R
PAGE, AZ       PTCLDY    81  50  33 S8        29.89R
GRAND CANYON   CLEAR     59  51  75 SW3       30.12R
KINGMAN        CLEAR     78  56  46 S12       29.87S
FLAGSTAFF      PTCLDY    58  55  90 MISG      30.17R

$$

REGIONAL REPORTS    NEVADA/IDAHO/WYOMING

CITY           SKY/WX    TMP DP  RH WIND       PRES   REMARKS
LAS VEGAS, NV  CLEAR     87  39  18 SW15      29.71R
ELY            CLEAR     63  33  32 S13       30.01R
ELKO           PTCLDY    62  52  69 E6        29.97R
POCATELLO, ID  PTCLDY    62  55  77 CALM      29.91S
BURLEY         PTCLDY    57  48  72 SW6       29.89R HAZE
EVANSTON, WY   PTCLDY    56  46  69 N18       30.10R
ROCK SPRINGS   MOCLDY    68  38  33 SW13      30.02R

$$



USA.gov is the U.S. government's official web portal to all federal, state and local government web resources and services.